Simultaneous Nadir Overpasses (SNOs) Predictions

Prediction of SNOs between FY3D and LANDSAT-8 Satellite Orbit:

Table of predicted SNOs for the next 14.0 days since TLE Epoch: 8/31/2024
Index Date (FY3D) Time (FY3D) Lat,Lon (FY3D) SZA (FY3D ) Date (LANDSAT-8) Time (LANDSAT-8) Lat,Lon (LANDSAT-8) SZA (LANDSAT-8 ) Distance(km) Time Diff (sec)
1 09/01/2024 04:58:06 -75.20, -71.26 112.96 09/01/2024 04:59:14 -75.08, -69.13 113.03 61.99 68
2 09/01/2024 05:48:42 74.70, 97.51 66.59 09/01/2024 05:48:47 74.71, 97.54 66.59 1.11 5
3 09/01/2024 06:39:25 -74.66, -95.05 113.45 09/01/2024 06:38:16 -74.64, -95.00 113.47 2.82 69
4 09/03/2024 21:15:13 -74.72, 45.88 112.42 09/03/2024 21:15:52 -74.75, 45.89 112.39 3.40 39
5 09/03/2024 22:05:58 74.66,-146.62 67.53 09/03/2024 22:05:19 74.67,-146.66 67.55 2.53 39
6 09/06/2024 12:41:46 74.74, -5.76 68.59 09/06/2024 12:42:54 74.77, -5.83 68.62 3.30 68
7 09/06/2024 13:32:28 -74.69, 161.72 111.45 09/06/2024 13:32:22 -74.70, 161.63 111.45 2.85 6
8 09/06/2024 14:23:04 74.19, -29.63 68.11 09/06/2024 14:21:56 74.26, -31.79 68.11 65.68 68
9 09/09/2024 04:59:01 74.73, 110.01 69.60 09/09/2024 04:59:22 74.74, 109.98 69.60 0.81 21
10 09/09/2024 05:49:44 -74.67, -82.50 110.45 09/09/2024 05:48:51 -74.67, -82.55 110.46 1.38 53
11 09/11/2024 20:25:32 -74.79, 58.27 109.34 09/11/2024 20:26:23 -74.77, 58.32 109.36 2.57 51
12 09/11/2024 21:16:16 74.70,-134.15 70.59 09/11/2024 21:15:50 74.68,-134.26 70.57 3.72 26



Historial Predications of SNOs between FY3D and LANDSAT-8
